Jackson, MS

10:44 PM CDT on September 26, 2016 (GMT -0500)
Hawkins

Weather History for KHKS - September, 2013

Change the Weather History Date:

Wednesday, September 25, 2013

  Actual Average (KJAN) Record (KJAN)
Temperature  
Mean Temperature 76 °F 72 °F  
Max Temperature 86 °F 84 °F 98 °F (1921)
Min Temperature 68 °F 61 °F 46 °F (1965)
Degree Days  
Heating Degree Days 0 1  
Month to date heating degree days 1  
Since 1 July heating degree days 1  
Cooling Degree Days 12 8  
Month to date cooling degree days 291  
Year to date cooling degree days 2090  
Growing Degree Days 26 (Base 50)    
Moisture  
Dew Point 68 °F    
Average Humidity 82    
Maximum Humidity 100    
Minimum Humidity 43    
Precipitation  
Precipitation 0.01 in 0.11 in 2.73 in (2002)
Month to date precipitation 2.49  
Year to date precipitation 39.77  
Sea Level Pressure  
Sea Level Pressure 29.81 in    
Wind  
Wind Speed 2 mph (SW)    
Max Wind Speed 13 mph    
Max Gust Speed 16 mph    
Visibility 6 miles    
Events Fog    
T = Trace of Precipitation, MM = Missing Value Source: NWS Daily Summary

Daily Weather History Graph

Daily Weather History Graph

Search for Another Location

Airport or City:

Trip Planner

Search our weather history database for the weather conditions in past years. The results will help you decide how hot, cold, wet, or windy it might be!

Date:

Astronomy

Sep. 25, 2013 Rise Set
Actual Time 6:51 AM CDT 6:53 PM CDT
Civil Twilight 6:26 AM CDT 7:17 PM CDT
Nautical Twilight 5:58 AM CDT 7:46 PM CDT
Astronomical Twilight 5:29 AM CDT 8:14 PM CDT
Moon 11:17 PM CDT (9/25) 12:39 PM CDT (9/25)
Length of Visible Light 12h 50m
Length of Day
12h 02m
Waning Gibbous, 64% of the Moon is Illuminated
Sep 25
Waning Gibbous
Sep 26
Last Quarter
Oct 4
New
Oct 11
First Quarter
Oct 18
Full

Hourly Weather History & Observations

Time (CDT) Temp. Heat Index Dew Point Humidity Pressure Visibility Wind Dir Wind Speed Gust Speed Precip Events Conditions
12:53 AM 72.0 °F - 70.0 °F 93% 29.80 in 2.0 mi Calm Calm - N/A   Overcast
1:00 AM 71.6 °F - 69.8 °F 94% 29.82 in 1.2 mi Calm Calm - N/A   Overcast
1:11 AM 71.6 °F - 71.6 °F 100% 29.82 in 0.5 mi Calm Calm - N/A Fog Fog
1:21 AM 71.6 °F - 71.6 °F 100% 29.82 in 0.2 mi Calm Calm - N/A Fog Fog
1:35 AM 71.6 °F - 71.6 °F 100% 29.82 in 0.8 mi Calm Calm - N/A   Mist
1:38 AM 71.6 °F - 71.6 °F 100% 29.82 in 2.0 mi Calm Calm - N/A   Overcast
1:46 AM 71.6 °F - 71.6 °F 100% 29.82 in 6.0 mi Calm Calm - N/A   Overcast
1:53 AM 72.0 °F - 70.0 °F 93% 29.80 in 8.0 mi Calm Calm - N/A   Overcast
2:53 AM 71.1 °F - 70.0 °F 96% 29.79 in 8.0 mi Calm Calm - N/A   Overcast
3:28 AM 71.6 °F - 69.8 °F 94% 29.81 in 1.5 mi Calm Calm - N/A   Overcast
3:37 AM 71.6 °F - 69.8 °F 94% 29.80 in 0.5 mi SSW 3.5 mph - N/A Fog Fog
3:51 AM 71.6 °F - 69.8 °F 94% 29.80 in 0.2 mi SSW 3.5 mph - N/A Fog Fog
3:53 AM 71.1 °F - 70.0 °F 96% 29.78 in 0.2 mi Calm Calm - N/A Fog Fog
4:53 AM 70.0 °F - 69.1 °F 97% 29.78 in 0.2 mi SSW 3.5 mph - N/A Fog Fog
5:53 AM 71.1 °F - 70.0 °F 96% 29.79 in 0.2 mi Calm Calm - N/A Fog Fog
6:53 AM 71.1 °F - 70.0 °F 96% 29.81 in 0.2 mi Calm Calm - N/A Fog Fog
7:53 AM 72.0 °F - 71.1 °F 97% 29.81 in 0.2 mi South 3.5 mph - 0.01 in Fog Fog
8:01 AM 71.6 °F - 71.6 °F 100% 29.84 in 0.8 mi SSE 3.5 mph - N/A   Mist
8:12 AM 73.4 °F - 71.6 °F 94% 29.84 in 1.8 mi SSE 4.6 mph - N/A   Overcast
8:19 AM 73.4 °F - 71.6 °F 94% 29.83 in 3.0 mi SSE 6.9 mph - N/A   Overcast
8:53 AM 73.0 °F - 72.0 °F 96% 29.81 in 5.0 mi Calm Calm - N/A   Overcast
9:13 AM 73.4 °F - 71.6 °F 94% 29.84 in 8.0 mi South 5.8 mph - N/A   Overcast
9:53 AM 75.0 °F - 71.1 °F 87% 29.82 in 10.0 mi South 6.9 mph - N/A   Mostly Cloudy
10:26 AM 78.8 °F - 69.8 °F 74% 29.84 in 10.0 mi Calm Calm - N/A   Mostly Cloudy
10:36 AM 78.8 °F - 69.8 °F 74% 29.84 in 10.0 mi South 5.8 mph - N/A   Scattered Clouds
10:53 AM 79.0 °F - 69.1 °F 72% 29.82 in 10.0 mi WSW 4.6 mph - N/A   Partly Cloudy
11:53 AM 82.9 °F 84.6 °F 64.9 °F 54% 29.81 in 10.0 mi West 8.1 mph - N/A   Clear
12:53 PM 84.0 °F 84.5 °F 62.1 °F 47% 29.80 in 10.0 mi NW 9.2 mph - N/A   Clear
1:53 PM 84.9 °F 84.8 °F 60.1 °F 43% 29.79 in 10.0 mi WNW 12.7 mph 16.1 mph N/A   Clear
2:53 PM 82.9 °F 83.3 °F 61.0 °F 47% 29.78 in 10.0 mi WNW 9.2 mph - N/A   Scattered Clouds
3:53 PM 84.9 °F 85.0 °F 61.0 °F 44% 29.78 in 10.0 mi WNW 11.5 mph - N/A   Partly Cloudy
4:53 PM 84.0 °F 84.0 °F 60.1 °F 44% 29.78 in 10.0 mi NW 6.9 mph - N/A   Scattered Clouds
5:53 PM 82.0 °F 82.7 °F 61.0 °F 49% 29.78 in 10.0 mi NW 6.9 mph - N/A   Clear
6:53 PM 79.0 °F - 62.1 °F 56% 29.79 in 10.0 mi North - - N/A   Clear
7:53 PM 73.9 °F - 64.0 °F 71% 29.80 in 10.0 mi Calm Calm - N/A   Clear
8:53 PM 71.1 °F - 64.9 °F 81% 29.82 in 8.0 mi Calm Calm - N/A   Clear
9:53 PM 70.0 °F - 64.9 °F 84% 29.83 in 10.0 mi Calm Calm - N/A   Clear
10:53 PM 69.1 °F - 64.0 °F 84% 29.83 in 10.0 mi Calm Calm - N/A   Clear
11:53 PM 68.0 °F - 64.0 °F 87% 29.83 in 10.0 mi Calm Calm - N/A   Clear